Location: ?????
(37.7324°N, 23.9257°E)
Time: 08:14:04
(UTC+00:00)

CZ-4C R/B - Pass Details

Date: 29 November 2020
Orbit: 620 x 1382 km, 63.4° (Epoch: 17 January)

Event Time Altitude Azimuth Distance (km) Brightness Sun altitude
Exits shadow 03:25:50 45° 237° (WSW) 975 2.2 -22.0°
Maximum altitude 03:27:16 69° 305° (NW) 790 1.8 -21.7°
Drops below altitude 10° 03:32:51 10° 29° (NNE) 2,479 4.8 -20.6°
Sets 03:35:36 0° 31° (NNE) 3,544 5.7 -20.1°
